Regional Weather Roundup
Issued by NWS Lake Charles, LA

Home | Current Version | Previous Version | Text Only | Print | Product List | Glossary On
Versions: 1 2 3 4 5 6 7 8 9 10 11 12 13 14 15 16 17 18 19 20 21 22 23 24 25 26 27
000
ASUS44 KLCH 232210
RWRLCH
RWRLCH
REGIONAL WEATHER ROUNDUP
NATIONAL WEATHER SERVICE LAKE CHARLES LA
500 PM CDT WED APR 23 2014

Note: "fair" indicates few or no clouds below 12,000 feet with no
significant weather and/or obstructions to visibility.


ACROSS SOUTHEAST TEXAS

CITY           SKY/WX    TMP DP  RH WIND       PRES   REMARKS
BEAUMONT       MOSUNNY   79  65  62 S12       29.88F
BEAUMONT CITY  MOCLDY    81  66  60 S14       29.88F
ORANGE         CLEAR     79  63  58 S12       29.90F
JASPER         SUNNY     82  60  46 S7        29.88F
$$

ACROSS CENTRAL LOUISIANA

CITY           SKY/WX    TMP DP  RH WIND       PRES   REMARKS
LEESVILLE      MOSUNNY   83  56  39 SE9       29.87F
FULLERTON        N/A     83  56  39 VRB5      29.85F
ALEXANDRIA INT SUNNY     83  53  35 VRB3      29.87F
ESLER FIELD    SUNNY     84  51  31 S3        29.88F
DERIDDER         N/A     84  53  34 SE5       29.89F
OAKDALE        CLEAR     80  58  47 CALM      29.88F
OPELOUSAS        N/A     83  57  41 CALM      29.88F
$$

ACROSS SOUTHWEST AND SOUTH CENTRAL LOUISIANA

CITY           SKY/WX    TMP DP  RH WIND       PRES   REMARKS
SULPHUR        CLEAR     81  63  55 SE10      29.90S
LAKE CHARLES   SUNNY     80  63  55 SW9       29.88F
CHENNAULT INT  MOSUNNY   79  61  53 S9        29.89F
CAMERON PHI    CLEAR     75  68  78 S12       29.91S
DEQUINCY       MOCLDY    82  63  53 S10       29.88S
JENNINGS         N/A     81  56  43 SE3       29.88F
LAFAYETTE      PTSUNNY   81  57  43 CALM      29.88F
NEW IBERIA     PTSUNNY   82  62  50 SW10      29.89F
ABBEVILLE        N/A     86  62  45 S12       29.89F
PATTERSON      PTSUNNY   81  64  57 S10       29.93F
SALT POINT       N/A     78  68  71 VRB5      29.90F
$$

SELECTED SITES ACROSS THE REGION

CITY           SKY/WX    TMP DP  RH WIND       PRES   REMARKS
HOUSTON BUSH   MOSUNNY   82  64  54 SE16      29.85F
HOUSTON HOBBY  MOSUNNY   81  65  58 S12       29.86F
GALVESTON      MOSUNNY   75  70  84 S14       29.90F
COLLEGE STAT   MOSUNNY   83  61  47 SE17G23   29.82F
CONROE         MOSUNNY   83  62  49 SE16      29.85F
HUNTSVILLE     SUNNY     84  60  44 S12       29.83F
LUFKIN         CLOUDY    88  62  41 SE10G18   29.84F
SHREVEPORT     MOSUNNY   84  58  40 S9        29.85F
MONROE         SUNNY     81  45  28 E3        29.91F
NATCHEZ MS     SUNNY     81  46  30 NW5       29.91F
BATON ROUGE    MOSUNNY   85  51  31 NE6       29.89F
N.O. INTL ARPT MOSUNNY   82  55  39 MISG      29.89F
SLIDELL        SUNNY     82  55  39 S9        29.89F
$$

MARINE REPORTS

STATION/POSITION TIME  TEMP    WIND        PRES    VSBY  WAVE
                       AIR SEA DIR/SP/G                  HT/PER
                 (UTC) (F)     (DEG/KT/KT) (MB)    (MI)  (FT/S)
BUOY 30 S HIGH I 2200   71 72  140/ 10/ 12 1012.1F         1/ 4
SEA RIM ST PARK  2200   72     160/ 11/ 13 1012.9F
PORT ARTHUR      2200      72  150/  9/ 12 1012.3F
SABINE PASS N    2200   74 71  180/ 11/ 15 1012.3S
TEXAS POINT      2200   72 73  160/ 11/ 13 1012.8R
CALCASIEU PASS   2200   73 74  180/ 10/ 13 1013.5F
LK CHARLES BEACH 2200   80 72              1012.6F
MARSH ISLAND     2100   75     200/  3/  6   N/A
FRESH WATER LOCK 2200   74 77  170/  8/ 11 1012.7F
AMERADA PASS     2200   75 72  180/  3/  8 1012.8F
$$



USA.gov is the U.S. government's official web portal to all federal, state and local government web resources and services.